DLH4KB EDDS-EDDK

Flight info

Callsign DLH4KB
Flight time 0h 36m
Altitude 22000
Route TAGIK4B TAGIK Z3 VATAK T840 GULKO GULKO1B
Aircraft A320/M-SDE3FGHIRWY/LB1

Departure

Time 2026-05-08 00:27
Airport Stuttgart Airport (EDDS)

Arrival

Time 2026-05-08 01:04
Airport Cologne Bonn Airport (EDDK)
Time Latitude Longitude Altitude Speed Heading
2026-05-07 23:56 48.68883 9.19359 1286 ft 0 kts 345°
2026-05-08 00:15 48.68883 9.19360 1285 ft 1 kts 345°
2026-05-08 00:15 48.68859 9.19368 1286 ft 4 kts 348°
2026-05-08 00:16 48.68833 9.19374 1288 ft 4 kts 359°
2026-05-08 00:16 48.68808 9.19369 1288 ft 4 kts 37°
2026-05-08 00:16 48.68800 9.19356 1288 ft 0 kts 73°
2026-05-08 00:19 48.68800 9.19358 1288 ft 2 kts 73°
2026-05-08 00:19 48.68815 9.19439 1285 ft 13 kts 73°
2026-05-08 00:19 48.68840 9.19564 1285 ft 12 kts 73°
2026-05-08 00:19 48.68861 9.19678 1289 ft 10 kts 72°
2026-05-08 00:20 48.68877 9.19759 1287 ft 7 kts 73°
2026-05-08 00:20 48.68888 9.19818 1285 ft 5 kts 75°
2026-05-08 00:20 48.68875 9.19865 1285 ft 6 kts 140°
2026-05-08 00:20 48.68825 9.19927 1285 ft 11 kts 108°
2026-05-08 00:21 48.68851 9.20095 1289 ft 22 kts 74°
2026-05-08 00:21 48.68878 9.20245 1286 ft 23 kts 75°
2026-05-08 00:21 48.68922 9.20479 1287 ft 24 kts 69°
2026-05-08 00:21 48.68969 9.20722 1285 ft 25 kts 74°
2026-05-08 00:22 48.69017 9.20976 1285 ft 26 kts 74°
2026-05-08 00:22 48.69067 9.21239 1289 ft 26 kts 74°
2026-05-08 00:22 48.69119 9.21510 1285 ft 27 kts 73°
2026-05-08 00:22 48.69172 9.21789 1285 ft 28 kts 73°
2026-05-08 00:23 48.69227 9.22073 1285 ft 28 kts 74°
2026-05-08 00:23 48.69282 9.22362 1286 ft 29 kts 73°
2026-05-08 00:23 48.69334 9.22633 1285 ft 25 kts 74°
2026-05-08 00:23 48.69382 9.22887 1289 ft 26 kts 74°
2026-05-08 00:24 48.69431 9.23151 1285 ft 26 kts 74°
2026-05-08 00:24 48.69482 9.23423 1287 ft 27 kts 74°
2026-05-08 00:24 48.69534 9.23702 1285 ft 28 kts 74°
2026-05-08 00:24 48.69581 9.23951 1288 ft 20 kts 74°
2026-05-08 00:25 48.69614 9.24129 1289 ft 14 kts 80°
2026-05-08 00:25 48.69568 9.24252 1286 ft 13 kts 125°
2026-05-08 00:25 48.69499 9.24316 1285 ft 10 kts 163°
2026-05-08 00:25 48.69440 9.24324 1285 ft 9 kts 194°
2026-05-08 00:26 48.69377 9.24258 1288 ft 12 kts 246°
2026-05-08 00:26 48.69373 9.24236 1285 ft 0 kts 253°
2026-05-08 00:26 48.69370 9.24225 1287 ft 7 kts 253°
2026-05-08 00:26 48.69285 9.23779 1285 ft 83 kts 254°
2026-05-08 00:27 48.69070 9.22626 1288 ft 142 kts 254°
2026-05-08 00:27 48.68764 9.21013 1538 ft 165 kts 256°
2026-05-08 00:27 48.68469 9.19300 2186 ft 166 kts 255°
2026-05-08 00:27 48.68157 9.17610 2724 ft 176 kts 253°
2026-05-08 00:28 48.67795 9.15714 2954 ft 199 kts 252°
2026-05-08 00:28 48.67367 9.13612 3190 ft 224 kts 252°
2026-05-08 00:28 48.66986 9.11199 3659 ft 243 kts 270°
2026-05-08 00:28 48.67482 9.08756 4432 ft 249 kts 302°
2026-05-08 00:29 48.68628 9.06794 5308 ft 252 kts 327°
2026-05-08 00:29 48.70252 9.05798 5932 ft 268 kts 346°
2026-05-08 00:29 48.72088 9.05068 6646 ft 276 kts 342°
2026-05-08 00:29 48.73937 9.04219 7488 ft 279 kts 341°
2026-05-08 00:30 48.75792 9.03306 8357 ft 281 kts 339°
2026-05-08 00:30 48.77658 9.02355 9236 ft 284 kts 339°
2026-05-08 00:30 48.79535 9.01380 10081 ft 286 kts 337°
2026-05-08 00:30 48.81449 9.00299 10545 ft 304 kts 336°
2026-05-08 00:31 48.83488 8.99079 10780 ft 327 kts 336°
2026-05-08 00:31 48.85646 8.97768 11239 ft 339 kts 336°
2026-05-08 00:31 48.87893 8.96411 11934 ft 345 kts 336°
2026-05-08 00:31 48.90106 8.95085 12653 ft 349 kts 336°
2026-05-08 00:32 48.92376 8.93735 13374 ft 353 kts 337°
2026-05-08 00:32 48.94718 8.92538 14048 ft 358 kts 345°
2026-05-08 00:32 48.97209 8.92035 14681 ft 364 kts 357°
2026-05-08 00:32 48.99751 8.92248 15309 ft 368 kts
2026-05-08 00:33 49.02317 8.92617 15934 ft 372 kts
2026-05-08 00:33 49.04902 8.92977 16553 ft 375 kts
2026-05-08 00:33 49.07519 8.93336 17163 ft 379 kts
2026-05-08 00:33 49.10158 8.93694 17767 ft 383 kts
2026-05-08 00:34 49.12824 8.94056 18363 ft 387 kts
2026-05-08 00:34 49.15518 8.94423 18899 ft 390 kts
2026-05-08 00:34 49.18231 8.94793 19437 ft 393 kts
2026-05-08 00:34 49.20972 8.95170 19968 ft 397 kts
2026-05-08 00:35 49.23734 8.95554 20509 ft 400 kts
2026-05-08 00:35 49.26518 8.95944 21045 ft 403 kts
2026-05-08 00:35 49.29325 8.96336 21574 ft 407 kts
2026-05-08 00:35 49.32153 8.96731 22095 ft 410 kts
2026-05-08 00:36 49.35004 8.97129 22596 ft 413 kts
2026-05-08 00:36 49.37876 8.97531 23085 ft 416 kts
2026-05-08 00:36 49.40779 8.97946 23578 ft 419 kts
2026-05-08 00:36 49.43690 8.98360 24002 ft 421 kts
2026-05-08 00:37 49.46622 8.98775 24409 ft 424 kts
2026-05-08 00:37 49.49564 8.99189 24804 ft 426 kts
2026-05-08 00:37 49.52517 8.99599 25185 ft 428 kts
2026-05-08 00:38 49.58473 9.00080 25942 ft 428 kts 353°
2026-05-08 00:38 49.61404 8.99363 26066 ft 424 kts 343°
2026-05-08 00:38 49.64157 8.97893 26100 ft 416 kts 333°
2026-05-08 00:38 49.66662 8.95738 26099 ft 412 kts 323°
2026-05-08 00:39 49.69002 8.93177 26100 ft 411 kts 322°
2026-05-08 00:39 49.71330 8.90631 26088 ft 411 kts 322°
2026-05-08 00:39 49.73671 8.88078 26097 ft 411 kts 323°
2026-05-08 00:39 49.76012 8.85530 26104 ft 411 kts 323°
2026-05-08 00:40 49.78352 8.82979 26105 ft 411 kts 322°
2026-05-08 00:40 49.80686 8.80422 26105 ft 411 kts 322°
2026-05-08 00:40 49.83013 8.77861 26102 ft 411 kts 322°
2026-05-08 00:40 49.85343 8.75294 26097 ft 411 kts 322°
2026-05-08 00:41 49.87671 8.72733 26099 ft 411 kts 322°
2026-05-08 00:41 49.89999 8.70180 26089 ft 411 kts 323°
2026-05-08 00:41 49.92346 8.67613 26107 ft 412 kts 323°
2026-05-08 00:41 49.94721 8.65011 26113 ft 424 kts 323°
2026-05-08 00:42 49.97161 8.62329 26106 ft 435 kts 322°
2026-05-08 00:42 49.99657 8.59576 26111 ft 444 kts 322°
2026-05-08 00:42 50.02202 8.56763 26113 ft 452 kts 322°
2026-05-08 00:42 50.04845 8.54038 26111 ft 461 kts 329°
2026-05-08 00:43 50.07791 8.51992 26113 ft 468 kts 339°
2026-05-08 00:43 50.10893 8.50326 26113 ft 471 kts 339°
2026-05-08 00:43 50.13994 8.48663 26110 ft 472 kts 339°
2026-05-08 00:43 50.17107 8.46991 26112 ft 473 kts 339°
2026-05-08 00:44 50.20209 8.45317 26119 ft 473 kts 339°
2026-05-08 00:44 50.23319 8.43640 26119 ft 473 kts 339°
2026-05-08 00:44 50.26431 8.41965 26121 ft 472 kts 339°
2026-05-08 00:44 50.29403 8.40070 26114 ft 449 kts 330°
2026-05-08 00:45 50.32006 8.37629 26129 ft 426 kts 325°
2026-05-08 00:45 50.34468 8.35170 26125 ft 416 kts 325°
2026-05-08 00:45 50.36901 8.32744 26136 ft 413 kts 326°
2026-05-08 00:45 50.39322 8.30327 26134 ft 413 kts 326°
2026-05-08 00:46 50.41752 8.27894 25599 ft 417 kts 326°
2026-05-08 00:46 50.44219 8.25426 24801 ft 419 kts 326°
2026-05-08 00:46 50.46661 8.22978 24280 ft 414 kts 326°
2026-05-08 00:46 50.49071 8.20558 23732 ft 409 kts 326°
2026-05-08 00:47 50.51458 8.18162 23170 ft 404 kts 326°
2026-05-08 00:47 50.53808 8.15800 22675 ft 398 kts 326°
2026-05-08 00:47 50.56128 8.13468 22208 ft 393 kts 326°
2026-05-08 00:47 50.58414 8.11169 21745 ft 388 kts 326°
2026-05-08 00:48 50.60676 8.08890 21291 ft 384 kts 326°
2026-05-08 00:48 50.62916 8.06628 20769 ft 380 kts 326°
2026-05-08 00:48 50.65105 8.04413 20308 ft 377 kts 326°
2026-05-08 00:48 50.67257 8.02234 19853 ft 374 kts 326°
2026-05-08 00:49 50.69438 8.00018 19380 ft 372 kts 326°
2026-05-08 00:49 50.71609 7.97806 18902 ft 370 kts 326°
2026-05-08 00:49 50.73746 7.95571 18419 ft 367 kts 322°
2026-05-08 00:49 50.75635 7.92879 17904 ft 364 kts 310°
2026-05-08 00:50 50.77150 7.89706 17434 ft 359 kts 301°
2026-05-08 00:50 50.78490 7.86389 16963 ft 356 kts 301°
2026-05-08 00:50 50.79822 7.83112 16486 ft 353 kts 301°
2026-05-08 00:50 50.81148 7.79850 16044 ft 351 kts 301°
2026-05-08 00:51 50.81997 7.77757 15748 ft 349 kts 301°
2026-05-08 00:51 50.83728 7.73485 15140 ft 347 kts 301°
2026-05-08 00:51 50.85023 7.70286 14689 ft 345 kts 301°
2026-05-08 00:51 50.86315 7.67096 14231 ft 343 kts 301°
2026-05-08 00:52 50.87602 7.63921 13759 ft 342 kts 301°
2026-05-08 00:52 50.88878 7.60764 13278 ft 339 kts 301°
2026-05-08 00:52 50.90142 7.57629 12823 ft 336 kts 301°
2026-05-08 00:52 50.91391 7.54517 12343 ft 333 kts 301°
2026-05-08 00:53 50.92628 7.51428 11874 ft 331 kts 301°
2026-05-08 00:53 50.93860 7.48351 11399 ft 329 kts 301°
2026-05-08 00:53 50.95085 7.45297 10917 ft 327 kts 302°
2026-05-08 00:53 50.96304 7.42261 10548 ft 323 kts 301°
2026-05-08 00:54 50.97486 7.39312 10431 ft 310 kts 301°
2026-05-08 00:54 50.98618 7.36474 10303 ft 299 kts 301°
2026-05-08 00:54 50.99712 7.33724 10096 ft 292 kts 301°
2026-05-08 00:54 51.00790 7.31014 10034 ft 290 kts 301°
2026-05-08 00:55 51.01873 7.28292 9606 ft 293 kts 302°
2026-05-08 00:55 51.02952 7.25576 9242 ft 287 kts 302°
2026-05-08 00:55 51.04008 7.22912 8654 ft 284 kts 302°
2026-05-08 00:55 51.05060 7.20259 8234 ft 282 kts 302°
2026-05-08 00:56 51.06093 7.17651 7738 ft 276 kts 302°
2026-05-08 00:56 51.07074 7.15045 7283 ft 275 kts 295°
2026-05-08 00:56 51.07665 7.12169 6844 ft 274 kts 279°
2026-05-08 00:56 51.07758 7.09167 6420 ft 273 kts 266°
2026-05-08 00:57 51.07642 7.06197 5928 ft 268 kts 266°
2026-05-08 00:57 51.07533 7.03308 5735 ft 258 kts 266°
2026-05-08 00:57 51.07432 7.00550 5665 ft 243 kts 266°
2026-05-08 00:57 51.07336 6.97925 5577 ft 231 kts 266°
2026-05-08 00:58 51.07163 6.95428 5337 ft 226 kts 251°
2026-05-08 00:58 51.06325 6.93377 4939 ft 220 kts 221°
2026-05-08 00:58 51.05029 6.92196 4621 ft 212 kts 196°
2026-05-08 00:58 51.03623 6.91936 4365 ft 199 kts 175°
2026-05-08 00:59 51.02313 6.92480 4086 ft 193 kts 154°
2026-05-08 00:59 51.01245 6.93670 3830 ft 185 kts 137°
2026-05-08 00:59 51.00324 6.95018 3570 ft 174 kts 137°
2026-05-08 00:59 50.99469 6.96268 3348 ft 163 kts 137°
2026-05-08 01:00 50.98924 6.97063 3195 ft 159 kts 137°
2026-05-08 01:00 50.97860 6.98618 2903 ft 150 kts 137°
2026-05-08 01:00 50.97354 6.99356 2774 ft 149 kts 137°
2026-05-08 01:00 50.96602 7.00455 2565 ft 146 kts 137°
2026-05-08 01:01 50.95856 7.01539 2369 ft 144 kts 138°
2026-05-08 01:01 50.95124 7.02610 2178 ft 143 kts 137°
2026-05-08 01:01 50.94399 7.03679 1977 ft 141 kts 138°
2026-05-08 01:01 50.93672 7.04723 1779 ft 140 kts 138°
2026-05-08 01:02 50.92953 7.05771 1597 ft 142 kts 138°
2026-05-08 01:02 50.92226 7.06828 1413 ft 142 kts 138°
2026-05-08 01:02 50.91502 7.07879 1193 ft 140 kts 137°
2026-05-08 01:02 50.90789 7.08916 990 ft 140 kts 136°
2026-05-08 01:03 50.90070 7.09963 816 ft 141 kts 136°
2026-05-08 01:03 50.89347 7.11015 655 ft 141 kts 135°
2026-05-08 01:03 50.88623 7.12073 460 ft 141 kts 135°
2026-05-08 01:03 50.87898 7.13126 251 ft 140 kts 135°
2026-05-08 01:04 50.87293 7.14023 243 ft 95 kts 138°
2026-05-08 01:04 50.86932 7.14549 260 ft 46 kts 136°
2026-05-08 01:04 50.86818 7.14699 265 ft 2 kts 146°
2026-05-08 01:04 50.86772 7.14749 267 ft 10 kts 146°
2026-05-08 01:05 50.86722 7.14723 268 ft 11 kts 239°
2026-05-08 01:05 50.86667 7.14539 264 ft 19 kts 245°
2026-05-08 01:05 50.86703 7.14393 263 ft 16 kts 318°
2026-05-08 01:05 50.86798 7.14256 256 ft 22 kts 318°
2026-05-08 01:06 50.86919 7.14085 255 ft 24 kts 318°
2026-05-08 01:06 50.87053 7.13892 244 ft 28 kts 316°
2026-05-08 01:06 50.87205 7.13668 238 ft 32 kts 318°
2026-05-08 01:06 50.87374 7.13422 232 ft 34 kts 317°
2026-05-08 01:07 50.87546 7.13174 233 ft 30 kts 317°
2026-05-08 01:07 50.87694 7.12962 233 ft 28 kts 317°
2026-05-08 01:07 50.87788 7.12783 232 ft 16 kts 270°
2026-05-08 01:07 50.87816 7.12636 233 ft 14 kts 323°
2026-05-08 01:08 50.87906 7.12609 232 ft 13 kts 351°
2026-05-08 01:08 50.87977 7.12529 232 ft 12 kts 319°
2026-05-08 01:08 50.88010 7.12484 234 ft 6 kts 319°
2026-05-08 01:08 50.88035 7.12445 232 ft 5 kts 317°
2026-05-08 01:09 50.88062 7.12403 232 ft 5 kts 312°
2026-05-08 01:09 50.88082 7.12362 232 ft 4 kts 307°
2026-05-08 01:09 50.88099 7.12324 232 ft 4 kts 306°
2026-05-08 01:09 50.88114 7.12291 234 ft 3 kts 306°
2026-05-08 01:10 50.88126 7.12265 232 ft 3 kts 306°
2026-05-08 01:10 50.88147 7.12219 233 ft 6 kts 304°
2026-05-08 01:10 50.88170 7.12166 234 ft 5 kts 306°
2026-05-08 01:10 50.88187 7.12120 232 ft 4 kts 278°
2026-05-08 01:11 50.88173 7.12098 235 ft 2 kts 220°
2026-05-08 01:11 50.88162 7.12084 232 ft 3 kts 217°
2026-05-08 01:11 50.88142 7.12062 232 ft 3 kts 216°
2026-05-08 01:11 50.88127 7.12045 232 ft 2 kts 215°
2026-05-08 01:12 50.88121 7.12038 232 ft 0 kts 215°